Weather History for Buffalo, WY

Change the Weather History Date:

Thursday, April 11, 2013

  Actual Average Record
Temperature  
Mean Temperature 38 °F 42 °F  
Max Temperature 51 °F 53 °F 79 °F (2012)
Min Temperature 25 °F 31 °F 18 °F (2004)
Degree Days  
Heating Degree Days 27 23  
Month to date heating degree days 279 273  
Since 1 July heating degree days 6163 6463  
Cooling Degree Days 0 0  
Month to date cooling degree days 0 0  
Year to date cooling degree days 0 0  
Moisture  
Dew Point 28 °F    
Average Humidity 65    
Maximum Humidity 84    
Minimum Humidity 46    
Precipitation  
Precipitation 0.03 in 0.04 in 0.21 in (2004)
Month to date precipitation 0.19 0.33  
Year to date precipitation 0.88 2.02  
Sea Level Pressure  
Sea Level Pressure 29.83 in    
Wind  
Wind Speed 17 mph (NNW)    
Max Wind Speed 43 mph    
Max Gust Speed 55 mph    
Visibility 10 miles    
Events      
T = Trace of Precipitation, MM = Missing Value Source: NWS Daily Summary

Daily Weather History Graph

Daily Weather History Graph

Search for Another Location

Airport:

Trip Planner

Search our weather history database for the weather conditions in past years. The results will help you decide how hot, cold, wet, or windy it might be!

Date:

Astronomy

Apr. 11, 2013 Rise Set
Actual Time 6:29 AM MDT 7:46 PM MDT
Civil Twilight 5:59 AM MDT 8:16 PM MDT
Nautical Twilight 5:23 AM MDT 8:53 PM MDT
Astronomical Twilight 4:45 AM MDT 9:31 PM MDT
Moon 6:59 AM MDT (4/11) 9:28 PM MDT (4/11)
Length of Visible Light 14h 17m
Length of Day
13h 17m
New Moon, 2% of the Moon is Illuminated
Apr 11
New Moon
Apr 18
First Quarter
Apr 25
Full
May 2
Last Quarter
May 9
New

Hourly Weather History & Observations

Time (MDT) Temp. Windchill Dew Point Humidity Pressure Visibility Wind Dir Wind Speed Gust Speed Precip Events Conditions
12:53 AM 25.0 °F 20.7 °F 19.0 °F 78% 29.89 in 10.0 mi SE 3.5 mph - N/A   Mostly Cloudy
1:53 AM 28.0 °F 22.8 °F 21.9 °F 78% 29.85 in 10.0 mi NW 4.6 mph - N/A   Overcast
2:53 AM 26.1 °F 20.5 °F 21.9 °F 84% 29.81 in 10.0 mi SW 4.6 mph - 0.01 in   Overcast
3:53 AM 30.0 °F - 25.0 °F 82% 29.78 in 10.0 mi Calm Calm - 0.00 in   Unknown
4:53 AM 30.0 °F - 24.1 °F 79% 29.78 in 10.0 mi Calm Calm - N/A   Overcast
5:53 AM 26.1 °F 20.5 °F 23.0 °F 88% 29.81 in 10.0 mi NNW 4.6 mph - N/A   Clear
6:53 AM 30.9 °F 22.8 °F 24.1 °F 76% 29.81 in 10.0 mi NNW 9.2 mph - N/A   Mostly Cloudy
7:53 AM 39.0 °F 29.9 °F 28.9 °F 67% 29.81 in 10.0 mi NNW 17.3 mph 26.5 mph 0.01 in   Overcast
8:53 AM 42.1 °F 32.3 °F 30.0 °F 62% 29.81 in 10.0 mi NNW 24.2 mph 38.0 mph 0.00 in   Overcast
9:53 AM 44.1 °F 34.0 °F 30.9 °F 60% 29.79 in 10.0 mi NNW 29.9 mph 49.5 mph N/A   Clear
11:53 AM 46.9 °F - 30.0 °F 52% 29.80 in 10.0 mi NNW 33.4 mph 49.5 mph N/A   Clear
12:53 PM 50.0 °F - 30.9 °F 48% 29.80 in 10.0 mi North 35.7 mph 48.3 mph N/A   Mostly Cloudy
1:53 PM 48.9 °F - 28.0 °F 44% 29.80 in 10.0 mi NW 36.8 mph 50.6 mph N/A   Mostly Cloudy
2:53 PM 45.0 °F 35.4 °F 34.0 °F 65% 29.84 in 10.0 mi North 28.8 mph 35.7 mph 0.00 in   Mostly Cloudy
3:53 PM 42.1 °F 31.9 °F 35.1 °F 76% 29.85 in 10.0 mi NNW 26.5 mph 46.0 mph 0.01 in   Mostly Cloudy
4:53 PM 43.0 °F 33.5 °F 30.9 °F 62% 29.85 in 10.0 mi NNW 24.2 mph 39.1 mph 0.00 in   Scattered Clouds
5:53 PM 43.0 °F 34.0 °F 30.0 °F 60% 29.87 in 10.0 mi NW 21.9 mph 28.8 mph N/A   Mostly Cloudy
6:53 PM 44.1 °F 36.8 °F 28.0 °F 53% 29.85 in 10.0 mi NNW 16.1 mph 27.6 mph N/A   Scattered Clouds
7:53 PM 41.0 °F 32.5 °F 28.0 °F 60% 29.83 in 10.0 mi NNW 17.3 mph 24.2 mph N/A   Mostly Cloudy
8:53 PM 41.0 °F 33.9 °F 28.0 °F 60% 29.84 in 10.0 mi NNW 12.7 mph - N/A   Overcast
9:53 PM 37.0 °F 31.6 °F 28.9 °F 73% 29.86 in 10.0 mi NW 6.9 mph - N/A   Overcast
10:53 PM 34.0 °F 29.8 °F 27.0 °F 75% 29.88 in 10.0 mi WNW 4.6 mph - N/A   Partly Cloudy
11:53 PM 35.1 °F 32.2 °F 27.0 °F 72% 29.87 in 10.0 mi Variable 3.5 mph - N/A   Mostly Cloudy